TimeCST,TemperatureF,Dew PointF,Humidity,Sea Level PressureIn,VisibilityMPH,Wind Direction,Wind SpeedMPH,Gust SpeedMPH,PrecipitationIn,Events,Conditions,WindDirDegrees,DateUTC
12:15 AM,28.4,5.0,37,30.03,10.0,SW,10.4,-,N/A,,Clear,220,2012-12-11 06:15:00
12:35 AM,28.4,5.0,37,30.03,10.0,SW,10.4,-,N/A,,Clear,220,2012-12-11 06:35:00
12:55 AM,30.2,5.0,34,30.03,10.0,SSW,10.4,-,N/A,,Clear,210,2012-12-11 06:55:00
1:15 AM,30.2,5.0,34,30.03,10.0,SW,11.5,-,N/A,,Clear,220,2012-12-11 07:15:00
1:35 AM,28.4,6.8,40,30.03,10.0,SSW,10.4,-,N/A,,Clear,210,2012-12-11 07:35:00
1:55 AM,28.4,6.8,40,30.03,10.0,SW,9.2,-,N/A,,Clear,220,2012-12-11 07:55:00
2:15 AM,30.2,6.8,37,30.03,10.0,SW,10.4,-,N/A,,Clear,220,2012-12-11 08:15:00
2:35 AM,28.4,8.6,43,30.03,10.0,SSW,10.4,-,N/A,,Clear,210,2012-12-11 08:35:00
2:55 AM,30.2,8.6,40,30.03,10.0,SW,9.2,-,N/A,,Scattered Clouds,220,2012-12-11 08:55:00
3:15 AM,30.2,8.6,40,30.03,10.0,SW,10.4,-,N/A,,Scattered Clouds,220,2012-12-11 09:15:00
3:35 AM,30.2,8.6,40,30.03,10.0,SW,10.4,-,N/A,,Scattered Clouds,220,2012-12-11 09:35:00
3:55 AM,28.4,8.6,43,30.03,10.0,SW,8.1,-,N/A,,Mostly Cloudy,220,2012-12-11 09:55:00
4:15 AM,30.2,8.6,40,30.03,10.0,SW,9.2,-,N/A,,Scattered Clouds,220,2012-12-11 10:15:00
4:35 AM,28.4,8.6,43,30.03,10.0,SW,9.2,-,N/A,,Scattered Clouds,220,2012-12-11 10:35:00
4:55 AM,28.4,10.4,47,30.03,10.0,SW,9.2,-,N/A,,Mostly Cloudy,220,2012-12-11 10:55:00
5:15 AM,28.4,10.4,47,30.03,10.0,WSW,6.9,-,N/A,,Overcast,240,2012-12-11 11:15:00
5:35 AM,26.6,8.6,47,30.05,10.0,West,6.9,-,N/A,,Mostly Cloudy,260,2012-12-11 11:35:00
5:55 AM,24.8,10.4,54,30.05,10.0,West,6.9,-,N/A,,Mostly Cloudy,260,2012-12-11 11:55:00
6:15 AM,26.6,10.4,51,30.05,10.0,West,6.9,-,N/A,,Overcast,270,2012-12-11 12:15:00
6:35 AM,28.4,12.2,51,30.05,10.0,West,8.1,-,N/A,,Overcast,280,2012-12-11 12:35:00
6:55 AM,28.4,12.2,51,30.06,10.0,WSW,5.8,-,N/A,,Overcast,250,2012-12-11 12:55:00
7:15 AM,28.4,12.2,51,30.07,10.0,SW,6.9,-,N/A,,Overcast,230,2012-12-11 13:15:00
7:35 AM,26.6,12.2,55,30.07,10.0,SW,5.8,-,N/A,,Mostly Cloudy,230,2012-12-11 13:35:00
7:55 AM,26.6,12.2,55,30.07,10.0,WSW,8.1,-,N/A,,Scattered Clouds,240,2012-12-11 13:55:00
8:15 AM,26.6,12.2,55,30.09,10.0,WSW,6.9,-,N/A,,Scattered Clouds,250,2012-12-11 14:15:00
8:55 AM,30.2,12.2,47,30.10,10.0,WNW,5.8,-,N/A,,Scattered Clouds,290,2012-12-11 14:55:00
9:15 AM,32.0,10.4,41,30.12,10.0,NW,9.2,-,N/A,,Scattered Clouds,310,2012-12-11 15:15:00
9:35 AM,32.0,10.4,41,30.12,10.0,NW,9.2,-,N/A,,Scattered Clouds,320,2012-12-11 15:35:00
9:55 AM,35.6,10.4,35,30.12,10.0,NNW,5.8,-,N/A,,Clear,340,2012-12-11 15:55:00
10:15 AM,37.4,10.4,33,30.12,10.0,North,6.9,-,N/A,,Clear,360,2012-12-11 16:15:00
10:35 AM,39.2,12.2,33,30.12,10.0,North,5.8,-,N/A,,Clear,360,2012-12-11 16:35:00
10:55 AM,41.0,12.2,31,30.13,10.0,North,4.6,-,N/A,,Clear,10,2012-12-11 16:55:00
11:15 AM,42.8,12.2,29,30.13,10.0,North,4.6,-,N/A,,Clear,350,2012-12-11 17:15:00
11:35 AM,42.8,12.2,29,30.12,10.0,ENE,4.6,-,N/A,,Clear,60,2012-12-11 17:35:00
11:55 AM,44.6,12.2,27,30.12,10.0,NNE,5.8,-,N/A,,Clear,20,2012-12-11 17:55:00
12:15 PM,44.6,12.2,27,30.11,10.0,Calm,Calm,-,N/A,,Clear,0,2012-12-11 18:15:00
12:35 PM,46.4,12.2,25,30.11,10.0,Calm,Calm,-,N/A,,Clear,0,2012-12-11 18:35:00
12:55 PM,46.4,12.2,25,30.10,10.0,Calm,Calm,-,N/A,,Clear,0,2012-12-11 18:55:00
1:15 PM,46.4,12.2,25,30.09,10.0,Calm,Calm,-,N/A,,Clear,0,2012-12-11 19:15:00
1:35 PM,46.4,10.4,23,30.09,10.0,Calm,Calm,-,N/A,,Clear,0,2012-12-11 19:35:00
1:55 PM,48.2,10.4,22,30.08,10.0,Calm,Calm,-,N/A,,Clear,0,2012-12-11 19:55:00
2:15 PM,46.4,8.6,22,30.08,10.0,NE,3.5,-,N/A,,Clear,40,2012-12-11 20:15:00
2:35 PM,50.0,10.4,20,30.07,10.0,SW,3.5,-,N/A,,Clear,220,2012-12-11 20:35:00
2:55 PM,50.0,8.6,19,30.07,10.0,SE,5.8,-,N/A,,Clear,130,2012-12-11 20:55:00
3:15 PM,50.0,8.6,19,30.07,10.0,SSE,3.5,-,N/A,,Clear,160,2012-12-11 21:15:00
3:35 PM,50.0,8.6,19,30.06,10.0,West,5.8,-,N/A,,Clear,260,2012-12-11 21:35:00
3:55 PM,50.0,8.6,19,30.06,10.0,SW,4.6,-,N/A,,Clear,230,2012-12-11 21:55:00
4:15 PM,50.0,5.0,16,30.06,10.0,SW,5.8,-,N/A,,Clear,230,2012-12-11 22:15:00
4:35 PM,48.2,6.8,19,30.07,10.0,SSW,9.2,-,N/A,,Clear,200,2012-12-11 22:35:00
4:55 PM,46.4,6.8,20,30.07,10.0,SSW,6.9,-,N/A,,Clear,200,2012-12-11 22:55:00
5:15 PM,42.8,8.6,25,30.07,10.0,SSW,6.9,-,N/A,,Clear,200,2012-12-11 23:15:00
5:35 PM,39.2,8.6,28,30.07,10.0,SSW,5.8,-,N/A,,Clear,210,2012-12-11 23:35:00
5:55 PM,41.0,8.6,26,30.08,10.0,SW,4.6,-,N/A,,Clear,220,2012-12-11 23:55:00
6:15 PM,42.8,8.6,25,30.09,10.0,SW,4.6,-,N/A,,Clear,220,2012-12-12 00:15:00
6:35 PM,35.6,8.6,33,30.09,10.0,South,9.2,-,N/A,,Clear,180,2012-12-12 00:35:00
6:55 PM,33.8,8.6,35,30.09,10.0,South,8.1,-,N/A,,Clear,180,2012-12-12 00:55:00
7:15 PM,35.6,8.6,33,30.09,10.0,South,9.2,-,N/A,,Clear,180,2012-12-12 01:15:00
7:35 PM,35.6,8.6,33,30.09,10.0,South,10.4,-,N/A,,Clear,180,2012-12-12 01:35:00
7:55 PM,35.6,10.4,35,30.10,10.0,South,10.4,-,N/A,,Clear,180,2012-12-12 01:55:00
8:15 PM,37.4,10.4,33,30.10,10.0,South,11.5,-,N/A,,Clear,180,2012-12-12 02:15:00
8:35 PM,37.4,10.4,33,30.10,10.0,South,10.4,-,N/A,,Clear,190,2012-12-12 02:35:00
8:55 PM,35.6,10.4,35,30.11,10.0,South,10.4,-,N/A,,Clear,190,2012-12-12 02:55:00
9:15 PM,35.6,10.4,35,30.11,10.0,South,11.5,-,N/A,,Clear,190,2012-12-12 03:15:00
9:55 PM,35.6,10.4,35,30.10,10.0,South,12.7,-,N/A,,Clear,180,2012-12-12 03:55:00
10:15 PM,35.6,12.2,38,30.10,10.0,South,11.5,-,N/A,,Clear,190,2012-12-12 04:15:00
10:55 PM,35.6,12.2,38,30.11,10.0,South,12.7,-,N/A,,Clear,190,2012-12-12 04:55:00
11:15 PM,35.6,12.2,38,30.10,10.0,South,13.8,-,N/A,,Clear,180,2012-12-12 05:15:00
11:35 PM,35.6,12.2,38,30.11,10.0,South,13.8,-,N/A,,Clear,190,2012-12-12 05:35:00
11:55 PM,35.6,12.2,38,30.10,10.0,South,15.0,-,N/A,,Clear,190,2012-12-12 05:55:00